Location: Newark
(33.9035°S, 18.4112°E)
Time: 00:17:43
(UTC+00:00)

STARLINK-1079 - Pass Details

Date: 18 January 2020
Orbit: 348 x 350 km, 53.0° (Epoch: 17 February)

Event Time Altitude Azimuth Distance (km) Brightness Sun altitude
Exits shadow 02:02:07 - 46° (NE) 2,005 6.5 -19.8°
Enters shadow 02:57:43 -75° 306° (NW) 12,665 10.5 -10.8°
Maximum altitude 03:37:38 65° 46° (NE) 391 3.0 -3.7°
